DMSP 5D-2 F13 DEB, 40489

Orbit data source: Space-Track

DMSP 5D-2 F13 DEB, 40489 is space debris in SSO originally from a launch on Fri, 24 Mar 1995 UTC launched from the Air Force Western Test Range (AFWTR). Debris objects in space refer to the collection of defunct objects orbiting the Earth. Examples of debris include non-operational satellites, rocket bodies, and fragments generated from explosions, collisions, or faulty payload assembly.

Loading next visibility...
Identifier
40489, 1995-015CC
Orbit
SSO
Country
Flag of USUS
Related business
Manufacturer
Unknown
Mission
Spacecraft
Bus & Motor
Unknown
Mass
Unknown
Launch date (UTC)
1995-03-24 (31 years ago)
Launch vehicle
Unknown
Launch site
Air Force Western Test Range (AFWTR)
Object type
Payload
Rocket body
Debris
Shape & HBR
Unknown shape, 0.1 m
Radar Cross Section
Medium (>0.1 m² and <1 m²)

Expand to show TLE details & history
Last TLE update: 18 hours ago

TLE from 18 hours ago
0 DMSP 5D-2 F13 DEB
1 40489U 95015CC  26149.79823748  .00019751  00000-0  46144-2 0  9999
2 40489  98.7206 131.2071 0032177  14.4788 345.7322 14.54385146578632
Epoch: 2026-05-29T19:09Z
TLE epoch observation values (Epoch: 2026-05-29T19:09:27.718Z)
Latitude
Longitude
-43.48184°
Altitude
692.215 km
Speed
7.522 km/s
True Right ascension
08h 44m 49s
True Declination
0° 00' 00"
Sunlit
Object was in daylight at epoch
Visualization orbit readout
Latitude
Unknown
Longitude
Unknown
Altitude
Unknown
Speed
Unknown
Apparent Right ascension
Unknown
Apparent Declination
Unknown
Sunlit
N/A
Visualization observer readout
Local Sidereal Time
22:55:45
Azimuth
Unknown
Elevation
Unknown
Doppler factor
Unknown
Orbital elements
Apogee altitude
731.278 km
Perigee altitude
685.673 km
Semi-major axis
7,086.612 km
Eccentricity
0.00322
Inclination
98.7206°
RAAN
131.2071°
Arg. of periapsis
14.4788°
True anomaly
345.64097°
Mean anomaly
345.7322°
Eccentric anomaly
345.68662°
Mean motion
3.63819 °/min
Orbital period
98.95 mins
BSTAR
0.0046144
Loading maneuver chart data...
Computing Atmospheric mass density...

Documentation

Showing up to 5 results
|